owner,sensor,date,latitude,longitude,air_pressure(mBar),qcFlag 
TABS,ioos:station:wmo:42043:1,2011-01-01T00:00:00Z,28.9818,-94.9186,1006.58,11111222 
TABS,ioos:station:wmo:42043:1,2011-01-01T00:30:00Z,28.9818,-94.9186,1006.94,11111222 
TABS,ioos:station:wmo:42043:1,2011-01-01T01:00:00Z,28.9818,-94.9186,1007.03,11111222 
TABS,ioos:station:wmo:42043:1,2011-01-01T01:30:00Z,28.9818,-94.9186,1007.26,11111222 
TABS,ioos:station:wmo:42043:1,2011-01-01T02:00:00Z,28.9818,-94.9186,1007.68,11111222 
TABS,ioos:station:wmo:42043:1,2011-01-01T02:30:00Z,28.9818,-94.9186,1008.03,11111222 
TABS,ioos:station:wmo:42043:1,2011-01-01T03:00:00Z,28.9818,-94.9186,1008.19,11111222 
TABS,ioos:station:wmo:42043:1,2011-01-01T03:30:00Z,28.9818,-94.9186,1008.8,11111222 
TABS,ioos:station:wmo:42043:1,2011-01-01T04:00:00Z,28.9818,-94.9186,1009.04,11111222 
TABS,ioos:station:wmo:42043:1,2011-01-01T04:30:00Z,28.9818,-94.9186,1009.13,11111222 
TABS,ioos:station:wmo:42043:1,2011-01-01T05:00:00Z,28.9818,-94.9186,1009.43,11111222 
TABS,ioos:station:wmo:42043:1,2011-01-01T05:30:00Z,28.9818,-94.9186,1009.65,11111222 
TABS,ioos:station:wmo:42043:1,2011-01-01T06:00:00Z,28.9818,-94.9186,1009.76,11111222 
TABS,ioos:station:wmo:42043:1,2011-01-01T06:30:00Z,28.9818,-94.9186,1009.68,11111222 
TABS,ioos:station:wmo:42043:1,2011-01-01T07:00:00Z,28.9818,-94.9186,1009.44,11111222 
TABS,ioos:station:wmo:42043:1,2011-01-01T07:30:00Z,28.9818,-94.9186,1009.88,11111222 
TABS,ioos:station:wmo:42043:1,2011-01-01T08:00:00Z,28.9818,-94.9186,1010.17,11111222 
TABS,ioos:station:wmo:42043:1,2011-01-01T08:30:00Z,28.9818,-94.9186,1010.35,11111222 
TABS,ioos:station:wmo:42043:1,2011-01-01T09:00:00Z,28.9818,-94.9186,1010.34,11111222 
TABS,ioos:station:wmo:42043:1,2011-01-01T09:30:00Z,28.9818,-94.9186,1011.04,11111222 
TABS,ioos:station:wmo:42043:1,2011-01-01T10:00:00Z,28.9818,-94.9186,1011.74,11111222 
TABS,ioos:station:wmo:42043:1,2011-01-01T10:30:00Z,28.9818,-94.9186,1012.29,11111222 
TABS,ioos:station:wmo:42043:1,2011-01-01T11:00:00Z,28.9818,-94.9186,1012.73,11111222 
TABS,ioos:station:wmo:42043:1,2011-01-01T11:30:00Z,28.9818,-94.9186,1014.09,11111222 
TABS,ioos:station:wmo:42043:1,2011-01-01T12:00:00Z,28.9818,-94.9186,1014.6,11111222 
TABS,ioos:station:wmo:42043:1,2011-01-01T12:30:00Z,28.9818,-94.9186,1015.69,11111222 
TABS,ioos:station:wmo:42043:1,2011-01-01T13:00:00Z,28.9818,-94.9186,1015.93,11111222 
TABS,ioos:station:wmo:42043:1,2011-01-01T13:30:00Z,28.9818,-94.9186,1016.42,11111222 
TABS,ioos:station:wmo:42043:1,2011-01-01T14:00:00Z,28.9818,-94.9186,1017.17,11111222 
TABS,ioos:station:wmo:42043:1,2011-01-01T14:30:00Z,28.9818,-94.9186,1017.54,11111222 
TABS,ioos:station:wmo:42043:1,2011-01-01T15:00:00Z,28.9818,-94.9186,1018.0,11111222 
TABS,ioos:station:wmo:42043:1,2011-01-01T15:30:00Z,28.9818,-94.9186,1018.65,11111222 
TABS,ioos:station:wmo:42043:1,2011-01-01T16:00:00Z,28.9818,-94.9186,1018.64,11111222 
TABS,ioos:station:wmo:42043:1,2011-01-01T16:30:00Z,28.9818,-94.9186,1018.56,11111222 
TABS,ioos:station:wmo:42043:1,2011-01-01T17:00:00Z,28.9818,-94.9186,1018.34,11111222 
TABS,ioos:station:wmo:42043:1,2011-01-01T17:30:00Z,28.9818,-94.9186,1018.56,11111222 
TABS,ioos:station:wmo:42043:1,2011-01-01T18:00:00Z,28.9818,-94.9186,1019.14,11111222 
TABS,ioos:station:wmo:42043:1,2011-01-01T18:30:00Z,28.9818,-94.9186,1018.95,11111222 
TABS,ioos:station:wmo:42043:1,2011-01-01T19:00:00Z,28.9818,-94.9186,1018.68,11111222 
TABS,ioos:station:wmo:42043:1,2011-01-01T19:30:00Z,28.9818,-94.9186,1018.5,11111222 
TABS,ioos:station:wmo:42043:1,2011-01-01T20:00:00Z,28.9818,-94.9186,1018.53,11111222 
TABS,ioos:station:wmo:42043:1,2011-01-01T20:30:00Z,28.9818,-94.9186,1018.55,11111222 
TABS,ioos:station:wmo:42043:1,2011-01-01T21:00:00Z,28.9818,-94.9186,1018.68,11111222 
TABS,ioos:station:wmo:42043:1,2011-01-01T21:30:00Z,28.9818,-94.9186,1018.69,11111222 
TABS,ioos:station:wmo:42043:1,2011-01-01T22:00:00Z,28.9818,-94.9186,1019.14,11111222 
TABS,ioos:station:wmo:42043:1,2011-01-01T22:30:00Z,28.9818,-94.9186,1019.29,11111222 
TABS,ioos:station:wmo:42043:1,2011-01-01T23:00:00Z,28.9818,-94.9186,1019.71,11111222 
TABS,ioos:station:wmo:42043:1,2011-01-01T23:30:00Z,28.9818,-94.9186,1020.1,11111222 
TABS,ioos:station:wmo:42043:1,2011-01-02T00:00:00Z,28.9818,-94.9186,1020.66,11111222 
TABS,ioos:station:wmo:42043:1,2011-01-02T00:30:00Z,28.9818,-94.9186,1020.99,11111222 
TABS,ioos:station:wmo:42043:1,2011-01-02T01:00:00Z,28.9818,-94.9186,1021.64,11111222 
TABS,ioos:station:wmo:42043:1,2011-01-02T01:30:00Z,28.9818,-94.9186,1022.02,11111222 
TABS,ioos:station:wmo:42043:1,2011-01-02T02:00:00Z,28.9818,-94.9186,1022.62,11111222 
TABS,ioos:station:wmo:42043:1,2011-01-02T02:30:00Z,28.9818,-94.9186,1022.9,11111222 
TABS,ioos:station:wmo:42043:1,2011-01-02T03:00:00Z,28.9818,-94.9186,1023.27,11111222 
TABS,ioos:station:wmo:42043:1,2011-01-02T03:30:00Z,28.9818,-94.9186,1023.63,11111222 
TABS,ioos:station:wmo:42043:1,2011-01-02T04:00:00Z,28.9818,-94.9186,1023.82,11111222 
TABS,ioos:station:wmo:42043:1,2011-01-02T04:30:00Z,28.9818,-94.9186,1023.81,11111222 
TABS,ioos:station:wmo:42043:1,2011-01-02T05:00:00Z,28.9818,-94.9186,1024.02,11111222 
TABS,ioos:station:wmo:42043:1,2011-01-02T05:30:00Z,28.9818,-94.9186,1024.1,11111222 
TABS,ioos:station:wmo:42043:1,2011-01-02T06:00:00Z,28.9818,-94.9186,1024.12,11111222 
TABS,ioos:station:wmo:42043:1,2011-01-02T06:30:00Z,28.9818,-94.9186,1024.06,11111222 
TABS,ioos:station:wmo:42043:1,2011-01-02T07:00:00Z,28.9818,-94.9186,1024.73,11111222 
TABS,ioos:station:wmo:42043:1,2011-01-02T07:30:00Z,28.9818,-94.9186,1024.87,11111222 
TABS,ioos:station:wmo:42043:1,2011-01-02T08:00:00Z,28.9818,-94.9186,1025.34,11111222 
TABS,ioos:station:wmo:42043:1,2011-01-02T08:30:00Z,28.9818,-94.9186,1025.14,11111222 
TABS,ioos:station:wmo:42043:1,2011-01-02T09:00:00Z,28.9818,-94.9186,1025.52,11111222 
TABS,ioos:station:wmo:42043:1,2011-01-02T09:30:00Z,28.9818,-94.9186,1025.69,11111222 
TABS,ioos:station:wmo:42043:1,2011-01-02T10:00:00Z,28.9818,-94.9186,1025.55,11111222 
TABS,ioos:station:wmo:42043:1,2011-01-02T10:30:00Z,28.9818,-94.9186,1025.53,11111222 
TABS,ioos:station:wmo:42043:1,2011-01-02T11:00:00Z,28.9818,-94.9186,1025.96,11111222 
TABS,ioos:station:wmo:42043:1,2011-01-02T11:30:00Z,28.9818,-94.9186,1026.27,11111222 
TABS,ioos:station:wmo:42043:1,2011-01-02T12:00:00Z,28.9818,-94.9186,1026.82,11111222 
TABS,ioos:station:wmo:42043:1,2011-01-02T12:30:00Z,28.9818,-94.9186,1027.15,11111222 
TABS,ioos:station:wmo:42043:1,2011-01-02T13:00:00Z,28.9818,-94.9186,1027.67,11111222 
TABS,ioos:station:wmo:42043:1,2011-01-02T13:30:00Z,28.9818,-94.9186,1028.21,11111222 
TABS,ioos:station:wmo:42043:1,2011-01-02T14:00:00Z,28.9818,-94.9186,1028.51,11111222 
TABS,ioos:station:wmo:42043:1,2011-01-02T14:30:00Z,28.9818,-94.9186,1028.88,11111222 
TABS,ioos:station:wmo:42043:1,2011-01-02T15:00:00Z,28.9818,-94.9186,1028.74,11111222 
TABS,ioos:station:wmo:42043:1,2011-01-02T15:30:00Z,28.9818,-94.9186,1029.02,11111222 
TABS,ioos:station:wmo:42043:1,2011-01-02T16:00:00Z,28.9818,-94.9186,1029.35,11111222 
TABS,ioos:station:wmo:42043:1,2011-01-02T16:30:00Z,28.9818,-94.9186,1029.51,11111222 
TABS,ioos:station:wmo:42043:1,2011-01-02T17:00:00Z,28.9818,-94.9186,1029.59,11111222 
TABS,ioos:station:wmo:42043:1,2011-01-02T17:30:00Z,28.9818,-94.9186,1029.23,11111222 
TABS,ioos:station:wmo:42043:1,2011-01-02T18:00:00Z,28.9818,-94.9186,1028.56,11111222 
TABS,ioos:station:wmo:42043:1,2011-01-02T18:30:00Z,28.9818,-94.9186,1027.83,11111222 
TABS,ioos:station:wmo:42043:1,2011-01-02T19:00:00Z,28.9818,-94.9186,1026.87,11111222 
TABS,ioos:station:wmo:42043:1,2011-01-02T19:30:00Z,28.9818,-94.9186,1026.4,11111222 
TABS,ioos:station:wmo:42043:1,2011-01-02T20:00:00Z,28.9818,-94.9186,1026.27,11111222 
TABS,ioos:station:wmo:42043:1,2011-01-02T20:30:00Z,28.9818,-94.9186,1026.11,11111222 
TABS,ioos:station:wmo:42043:1,2011-01-02T21:00:00Z,28.9818,-94.9186,1025.86,11111222 
TABS,ioos:station:wmo:42043:1,2011-01-02T21:30:00Z,28.9818,-94.9186,1026.15,11111222 
TABS,ioos:station:wmo:42043:1,2011-01-02T22:00:00Z,28.9818,-94.9186,1026.29,11111222 
TABS,ioos:station:wmo:42043:1,2011-01-02T22:30:00Z,28.9818,-94.9186,1026.26,11111222 
TABS,ioos:station:wmo:42043:1,2011-01-02T23:00:00Z,28.9818,-94.9186,1026.29,11111222 
TABS,ioos:station:wmo:42043:1,2011-01-02T23:30:00Z,28.9818,-94.9186,1026.32,11111222 
TABS,ioos:station:wmo:42043:1,2011-01-03T00:00:00Z,28.9818,-94.9186,1026.39,11111222 
TABS,ioos:station:wmo:42043:1,2011-01-03T00:30:00Z,28.9818,-94.9186,1026.1,11111222 
TABS,ioos:station:wmo:42043:1,2011-01-03T01:00:00Z,28.9818,-94.9186,1026.39,11111222 
TABS,ioos:station:wmo:42043:1,2011-01-03T01:30:00Z,28.9818,-94.9186,1026.28,11111222 
TABS,ioos:station:wmo:42043:1,2011-01-03T02:00:00Z,28.9818,-94.9186,1026.46,11111222 
TABS,ioos:station:wmo:42043:1,2011-01-03T02:30:00Z,28.9818,-94.9186,1026.29,11111222 
TABS,ioos:station:wmo:42043:1,2011-01-03T03:00:00Z,28.9818,-94.9186,1026.27,11111222 
TABS,ioos:station:wmo:42043:1,2011-01-03T03:30:00Z,28.9818,-94.9186,1026.21,11111222 
TABS,ioos:station:wmo:42043:1,2011-01-03T04:00:00Z,28.9818,-94.9186,1026.29,11111222 
TABS,ioos:station:wmo:42043:1,2011-01-03T04:30:00Z,28.9818,-94.9186,1026.2,11111222 
TABS,ioos:station:wmo:42043:1,2011-01-03T05:00:00Z,28.9818,-94.9186,1026.28,11111222 
TABS,ioos:station:wmo:42043:1,2011-01-03T05:30:00Z,28.9818,-94.9186,1026.12,11111222 
TABS,ioos:station:wmo:42043:1,2011-01-03T06:00:00Z,28.9818,-94.9186,1025.73,11111222 
TABS,ioos:station:wmo:42043:1,2011-01-03T06:30:00Z,28.9818,-94.9186,1025.33,11111222 
TABS,ioos:station:wmo:42043:1,2011-01-03T07:00:00Z,28.9818,-94.9186,1025.07,11111222 
TABS,ioos:station:wmo:42043:1,2011-01-03T07:30:00Z,28.9818,-94.9186,1024.96,11111222 
TABS,ioos:station:wmo:42043:1,2011-01-03T08:00:00Z,28.9818,-94.9186,1024.89,11111222 
TABS,ioos:station:wmo:42043:1,2011-01-03T08:30:00Z,28.9818,-94.9186,1024.8,11111222 
TABS,ioos:station:wmo:42043:1,2011-01-03T09:00:00Z,28.9818,-94.9186,1024.64,11111222 
TABS,ioos:station:wmo:42043:1,2011-01-03T09:30:00Z,28.9818,-94.9186,1024.58,11111222 
TABS,ioos:station:wmo:42043:1,2011-01-03T10:00:00Z,28.9818,-94.9186,1024.48,11111222 
TABS,ioos:station:wmo:42043:1,2011-01-03T10:30:00Z,28.9818,-94.9186,1024.47,11111222 
TABS,ioos:station:wmo:42043:1,2011-01-03T11:00:00Z,28.9818,-94.9186,1024.64,11111222 
TABS,ioos:station:wmo:42043:1,2011-01-03T11:30:00Z,28.9818,-94.9186,1024.33,11111222 
TABS,ioos:station:wmo:42043:1,2011-01-03T12:00:00Z,28.9818,-94.9186,1024.38,11111222 
TABS,ioos:station:wmo:42043:1,2011-01-03T12:30:00Z,28.9818,-94.9186,1024.37,11111222 
TABS,ioos:station:wmo:42043:1,2011-01-03T13:00:00Z,28.9818,-94.9186,1024.45,11111222 
TABS,ioos:station:wmo:42043:1,2011-01-03T13:30:00Z,28.9818,-94.9186,1024.47,11111222 
TABS,ioos:station:wmo:42043:1,2011-01-03T14:00:00Z,28.9818,-94.9186,1024.51,11111222 
TABS,ioos:station:wmo:42043:1,2011-01-03T14:30:00Z,28.9818,-94.9186,1024.55,11111222 
TABS,ioos:station:wmo:42043:1,2011-01-03T15:00:00Z,28.9818,-94.9186,1024.7,11111222 
TABS,ioos:station:wmo:42043:1,2011-01-03T15:30:00Z,28.9818,-94.9186,1024.8,11111222 
TABS,ioos:station:wmo:42043:1,2011-01-03T16:00:00Z,28.9818,-94.9186,1024.83,11111222 
TABS,ioos:station:wmo:42043:1,2011-01-03T16:30:00Z,28.9818,-94.9186,1024.95,11111222 
TABS,ioos:station:wmo:42043:1,2011-01-03T17:00:00Z,28.9818,-94.9186,1024.28,11111222 
TABS,ioos:station:wmo:42043:1,2011-01-03T17:30:00Z,28.9818,-94.9186,1024.07,11111222 
TABS,ioos:station:wmo:42043:1,2011-01-03T18:00:00Z,28.9818,-94.9186,1023.44,11111222 
TABS,ioos:station:wmo:42043:1,2011-01-03T18:30:00Z,28.9818,-94.9186,1022.92,11111222 
TABS,ioos:station:wmo:42043:1,2011-01-03T19:00:00Z,28.9818,-94.9186,1022.16,11111222 
TABS,ioos:station:wmo:42043:1,2011-01-03T19:30:00Z,28.9818,-94.9186,1021.6,11111222 
TABS,ioos:station:wmo:42043:1,2011-01-03T20:00:00Z,28.9818,-94.9186,1021.2,11111222 
TABS,ioos:station:wmo:42043:1,2011-01-03T20:30:00Z,28.9818,-94.9186,1021.07,11111222 
TABS,ioos:station:wmo:42043:1,2011-01-03T21:00:00Z,28.9818,-94.9186,1020.69,11111222 
TABS,ioos:station:wmo:42043:1,2011-01-03T21:30:00Z,28.9818,-94.9186,1020.51,11111222 
TABS,ioos:station:wmo:42043:1,2011-01-03T22:00:00Z,28.9818,-94.9186,1020.54,11111222 
TABS,ioos:station:wmo:42043:1,2011-01-03T22:30:00Z,28.9818,-94.9186,1020.47,11111222 
TABS,ioos:station:wmo:42043:1,2011-01-03T23:00:00Z,28.9818,-94.9186,1020.53,11111222 
TABS,ioos:station:wmo:42043:1,2011-01-03T23:30:00Z,28.9818,-94.9186,1020.23,11111222 
TABS,ioos:station:wmo:42043:1,2011-01-04T00:00:00Z,28.9818,-94.9186,1019.99,11111222 
TABS,ioos:station:wmo:42043:1,2011-01-04T00:30:00Z,28.9818,-94.9186,1020.17,11111222 
TABS,ioos:station:wmo:42043:1,2011-01-04T01:00:00Z,28.9818,-94.9186,1020.11,11111222 
TABS,ioos:station:wmo:42043:1,2011-01-04T01:30:00Z,28.9818,-94.9186,1019.99,11111222 
TABS,ioos:station:wmo:42043:1,2011-01-04T02:00:00Z,28.9818,-94.9186,1019.84,11111222 
TABS,ioos:station:wmo:42043:1,2011-01-04T02:30:00Z,28.9818,-94.9186,1019.87,11111222 
TABS,ioos:station:wmo:42043:1,2011-01-04T03:00:00Z,28.9818,-94.9186,1019.98,11111222 
TABS,ioos:station:wmo:42043:1,2011-01-04T03:30:00Z,28.9818,-94.9186,1019.99,11111222 
TABS,ioos:station:wmo:42043:1,2011-01-04T04:00:00Z,28.9818,-94.9186,1019.92,11111222 
TABS,ioos:station:wmo:42043:1,2011-01-04T04:30:00Z,28.9818,-94.9186,1020.0,11111222 
TABS,ioos:station:wmo:42043:1,2011-01-04T05:00:00Z,28.9818,-94.9186,1019.88,11111222 
TABS,ioos:station:wmo:42043:1,2011-01-04T05:30:00Z,28.9818,-94.9186,1019.87,11111222 
TABS,ioos:station:wmo:42043:1,2011-01-04T06:00:00Z,28.9818,-94.9186,1019.75,11111222 
TABS,ioos:station:wmo:42043:1,2011-01-04T06:30:00Z,28.9818,-94.9186,1019.76,11111222 
TABS,ioos:station:wmo:42043:1,2011-01-04T07:00:00Z,28.9818,-94.9186,1019.49,11111222 
TABS,ioos:station:wmo:42043:1,2011-01-04T07:30:00Z,28.9818,-94.9186,1019.31,11111222 
TABS,ioos:station:wmo:42043:1,2011-01-04T08:00:00Z,28.9818,-94.9186,1019.23,11111222 
TABS,ioos:station:wmo:42043:1,2011-01-04T08:30:00Z,28.9818,-94.9186,1018.84,11111222 
TABS,ioos:station:wmo:42043:1,2011-01-04T09:00:00Z,28.9818,-94.9186,1018.73,11111222 
TABS,ioos:station:wmo:42043:1,2011-01-04T09:30:00Z,28.9818,-94.9186,1018.41,11111222 
TABS,ioos:station:wmo:42043:1,2011-01-04T10:00:00Z,28.9818,-94.9186,1018.14,11111222 
TABS,ioos:station:wmo:42043:1,2011-01-04T10:30:00Z,28.9818,-94.9186,1018.29,11111222 
TABS,ioos:station:wmo:42043:1,2011-01-04T11:00:00Z,28.9818,-94.9186,1018.13,11111222 
TABS,ioos:station:wmo:42043:1,2011-01-04T11:30:00Z,28.9818,-94.9186,1018.4,11111222 
TABS,ioos:station:wmo:42043:1,2011-01-04T12:00:00Z,28.9818,-94.9186,1018.43,11111222 
TABS,ioos:station:wmo:42043:1,2011-01-04T12:30:00Z,28.9818,-94.9186,1019.02,11111222 
TABS,ioos:station:wmo:42043:1,2011-01-04T13:00:00Z,28.9818,-94.9186,1019.09,11111222 
TABS,ioos:station:wmo:42043:1,2011-01-04T13:30:00Z,28.9818,-94.9186,1019.08,11111222 
TABS,ioos:station:wmo:42043:1,2011-01-04T14:00:00Z,28.9818,-94.9186,1019.34,11111222 
TABS,ioos:station:wmo:42043:1,2011-01-04T14:30:00Z,28.9818,-94.9186,1019.58,11111222 
TABS,ioos:station:wmo:42043:1,2011-01-04T15:00:00Z,28.9818,-94.9186,1019.92,11111222 
TABS,ioos:station:wmo:42043:1,2011-01-04T15:30:00Z,28.9818,-94.9186,1020.24,11111222 
TABS,ioos:station:wmo:42043:1,2011-01-04T16:00:00Z,28.9818,-94.9186,1020.35,11111222 
TABS,ioos:station:wmo:42043:1,2011-01-04T16:30:00Z,28.9818,-94.9186,1020.38,11111222 
TABS,ioos:station:wmo:42043:1,2011-01-04T17:00:00Z,28.9818,-94.9186,1020.31,11111222 
TABS,ioos:station:wmo:42043:1,2011-01-04T17:30:00Z,28.9818,-94.9186,1019.89,11111222 
TABS,ioos:station:wmo:42043:1,2011-01-04T18:00:00Z,28.9818,-94.9186,1019.06,11111222 
TABS,ioos:station:wmo:42043:1,2011-01-04T18:30:00Z,28.9818,-94.9186,1018.34,11111222 
TABS,ioos:station:wmo:42043:1,2011-01-04T19:00:00Z,28.9818,-94.9186,1018.04,11111222 
TABS,ioos:station:wmo:42043:1,2011-01-04T19:30:00Z,28.9818,-94.9186,1017.6,11111222 
TABS,ioos:station:wmo:42043:1,2011-01-04T20:00:00Z,28.9818,-94.9186,1017.35,11111222 
TABS,ioos:station:wmo:42043:1,2011-01-04T20:30:00Z,28.9818,-94.9186,1017.0,11111222 
TABS,ioos:station:wmo:42043:1,2011-01-04T21:00:00Z,28.9818,-94.9186,1016.65,11111222 
TABS,ioos:station:wmo:42043:1,2011-01-04T21:30:00Z,28.9818,-94.9186,1016.65,11111222 
TABS,ioos:station:wmo:42043:1,2011-01-04T22:00:00Z,28.9818,-94.9186,1016.49,11111222 
TABS,ioos:station:wmo:42043:1,2011-01-04T22:30:00Z,28.9818,-94.9186,1016.26,11111222 
TABS,ioos:station:wmo:42043:1,2011-01-04T23:00:00Z,28.9818,-94.9186,1015.86,11111222 
TABS,ioos:station:wmo:42043:1,2011-01-04T23:30:00Z,28.9818,-94.9186,1015.56,11111222 
TABS,ioos:station:wmo:42043:1,2011-01-05T00:00:00Z,28.9818,-94.9186,1015.56,11111222 
TABS,ioos:station:wmo:42043:1,2011-01-05T00:30:00Z,28.9818,-94.9186,1015.56,11111222 
TABS,ioos:station:wmo:42043:1,2011-01-05T01:00:00Z,28.9818,-94.9186,1015.77,11111222 
TABS,ioos:station:wmo:42043:1,2011-01-05T01:30:00Z,28.9818,-94.9186,1015.97,11111222 
TABS,ioos:station:wmo:42043:1,2011-01-05T02:00:00Z,28.9818,-94.9186,1015.9,11111222 
TABS,ioos:station:wmo:42043:1,2011-01-05T02:30:00Z,28.9818,-94.9186,1016.02,11111222 
TABS,ioos:station:wmo:42043:1,2011-01-05T03:00:00Z,28.9818,-94.9186,1015.87,11111222 
TABS,ioos:station:wmo:42043:1,2011-01-05T03:30:00Z,28.9818,-94.9186,1015.32,11111222 
TABS,ioos:station:wmo:42043:1,2011-01-05T04:00:00Z,28.9818,-94.9186,1015.27,11111222 
TABS,ioos:station:wmo:42043:1,2011-01-05T04:30:00Z,28.9818,-94.9186,1015.27,11111222 
TABS,ioos:station:wmo:42043:1,2011-01-05T05:00:00Z,28.9818,-94.9186,1014.98,11111222 
TABS,ioos:station:wmo:42043:1,2011-01-05T05:30:00Z,28.9818,-94.9186,1015.02,11111222 
TABS,ioos:station:wmo:42043:1,2011-01-05T06:00:00Z,28.9818,-94.9186,1015.19,11111222 
TABS,ioos:station:wmo:42043:1,2011-01-05T06:30:00Z,28.9818,-94.9186,1015.2,11111222 
TABS,ioos:station:wmo:42043:1,2011-01-05T07:00:00Z,28.9818,-94.9186,1014.51,11111222 
TABS,ioos:station:wmo:42043:1,2011-01-05T07:30:00Z,28.9818,-94.9186,1014.48,11111222 
TABS,ioos:station:wmo:42043:1,2011-01-05T08:00:00Z,28.9818,-94.9186,1014.64,11111222 
TABS,ioos:station:wmo:42043:1,2011-01-05T08:30:00Z,28.9818,-94.9186,1014.12,11111222 
TABS,ioos:station:wmo:42043:1,2011-01-05T09:00:00Z,28.9818,-94.9186,1013.75,11111222 
TABS,ioos:station:wmo:42043:1,2011-01-05T09:30:00Z,28.9818,-94.9186,1013.67,11111222 
TABS,ioos:station:wmo:42043:1,2011-01-05T10:00:00Z,28.9818,-94.9186,1013.51,11111222 
TABS,ioos:station:wmo:42043:1,2011-01-05T10:30:00Z,28.9818,-94.9186,1013.78,11111222 
TABS,ioos:station:wmo:42043:1,2011-01-05T11:00:00Z,28.9818,-94.9186,1013.65,11111222 
TABS,ioos:station:wmo:42043:1,2011-01-05T11:30:00Z,28.9818,-94.9186,1013.9,11111222 
TABS,ioos:station:wmo:42043:1,2011-01-05T12:00:00Z,28.9818,-94.9186,1014.06,11111222 
TABS,ioos:station:wmo:42043:1,2011-01-05T12:30:00Z,28.9818,-94.9186,1014.31,11111222 
TABS,ioos:station:wmo:42043:1,2011-01-05T13:00:00Z,28.9818,-94.9186,1014.38,11111222 
TABS,ioos:station:wmo:42043:1,2011-01-05T13:30:00Z,28.9818,-94.9186,1014.84,11111222 
TABS,ioos:station:wmo:42043:1,2011-01-05T14:00:00Z,28.9818,-94.9186,1015.33,11111222 
TABS,ioos:station:wmo:42043:1,2011-01-05T14:30:00Z,28.9818,-94.9186,1015.69,11111222 
TABS,ioos:station:wmo:42043:1,2011-01-05T15:00:00Z,28.9818,-94.9186,1015.88,11111222 
TABS,ioos:station:wmo:42043:1,2011-01-05T15:30:00Z,28.9818,-94.9186,1016.1,11111222 
TABS,ioos:station:wmo:42043:1,2011-01-05T16:00:00Z,28.9818,-94.9186,1016.2,11111222 
TABS,ioos:station:wmo:42043:1,2011-01-05T16:30:00Z,28.9818,-94.9186,1015.95,11111222 
TABS,ioos:station:wmo:42043:1,2011-01-05T17:00:00Z,28.9818,-94.9186,1015.72,11111222 
TABS,ioos:station:wmo:42043:1,2011-01-05T17:30:00Z,28.9818,-94.9186,1015.5,11111222 
TABS,ioos:station:wmo:42043:1,2011-01-05T18:00:00Z,28.9818,-94.9186,1014.96,11111222 
TABS,ioos:station:wmo:42043:1,2011-01-05T18:30:00Z,28.9818,-94.9186,1014.55,11111222 
TABS,ioos:station:wmo:42043:1,2011-01-05T19:00:00Z,28.9818,-94.9186,1013.77,11111222 
TABS,ioos:station:wmo:42043:1,2011-01-05T19:30:00Z,28.9818,-94.9186,1013.51,11111222 
TABS,ioos:station:wmo:42043:1,2011-01-05T20:00:00Z,28.9818,-94.9186,1013.06,11111222 
TABS,ioos:station:wmo:42043:1,2011-01-05T20:30:00Z,28.9818,-94.9186,1012.86,11111222 
TABS,ioos:station:wmo:42043:1,2011-01-05T21:00:00Z,28.9818,-94.9186,1012.95,11111222 
TABS,ioos:station:wmo:42043:1,2011-01-05T21:30:00Z,28.9818,-94.9186,1012.99,11111222 
TABS,ioos:station:wmo:42043:1,2011-01-05T22:00:00Z,28.9818,-94.9186,1013.35,11111222 
TABS,ioos:station:wmo:42043:1,2011-01-05T22:30:00Z,28.9818,-94.9186,1013.32,11111222 
TABS,ioos:station:wmo:42043:1,2011-01-05T23:00:00Z,28.9818,-94.9186,1013.27,11111222 
TABS,ioos:station:wmo:42043:1,2011-01-05T23:30:00Z,28.9818,-94.9186,1013.29,11111222 
TABS,ioos:station:wmo:42043:1,2011-01-06T00:00:00Z,28.9818,-94.9186,1013.44,11111222 
TABS,ioos:station:wmo:42043:1,2011-01-06T00:30:00Z,28.9818,-94.9186,1013.55,11111222 
TABS,ioos:station:wmo:42043:1,2011-01-06T01:00:00Z,28.9818,-94.9186,1014.1,11111222 
TABS,ioos:station:wmo:42043:1,2011-01-06T01:30:00Z,28.9818,-94.9186,1014.46,11111222 
TABS,ioos:station:wmo:42043:1,2011-01-06T02:00:00Z,28.9818,-94.9186,1014.81,11111222 
TABS,ioos:station:wmo:42043:1,2011-01-06T02:30:00Z,28.9818,-94.9186,1015.01,11111222 
TABS,ioos:station:wmo:42043:1,2011-01-06T03:00:00Z,28.9818,-94.9186,1015.46,11111222 
TABS,ioos:station:wmo:42043:1,2011-01-06T03:30:00Z,28.9818,-94.9186,1015.89,11111222 
TABS,ioos:station:wmo:42043:1,2011-01-06T04:00:00Z,28.9818,-94.9186,1016.13,11111222 
TABS,ioos:station:wmo:42043:1,2011-01-06T04:30:00Z,28.9818,-94.9186,1016.32,11111222 
TABS,ioos:station:wmo:42043:1,2011-01-06T05:00:00Z,28.9818,-94.9186,1016.27,11111222 
TABS,ioos:station:wmo:42043:1,2011-01-06T05:30:00Z,28.9818,-94.9186,1016.44,11111222 
TABS,ioos:station:wmo:42043:1,2011-01-06T06:00:00Z,28.9818,-94.9186,1016.47,11111222 
TABS,ioos:station:wmo:42043:1,2011-01-06T06:30:00Z,28.9818,-94.9186,1016.44,11111222 
TABS,ioos:station:wmo:42043:1,2011-01-06T07:00:00Z,28.9818,-94.9186,1016.55,11111222 
TABS,ioos:station:wmo:42043:1,2011-01-06T07:30:00Z,28.9818,-94.9186,1016.68,11111222 
TABS,ioos:station:wmo:42043:1,2011-01-06T08:00:00Z,28.9818,-94.9186,1016.65,11111222 
TABS,ioos:station:wmo:42043:1,2011-01-06T08:30:00Z,28.9818,-94.9186,1016.55,11111222 
TABS,ioos:station:wmo:42043:1,2011-01-06T09:00:00Z,28.9818,-94.9186,1016.65,11111222 
TABS,ioos:station:wmo:42043:1,2011-01-06T09:30:00Z,28.9818,-94.9186,1016.82,11111222 
TABS,ioos:station:wmo:42043:1,2011-01-06T10:00:00Z,28.9818,-94.9186,1016.77,11111222 
TABS,ioos:station:wmo:42043:1,2011-01-06T10:30:00Z,28.9818,-94.9186,1016.58,11111222 
TABS,ioos:station:wmo:42043:1,2011-01-06T11:00:00Z,28.9818,-94.9186,1016.77,11111222 
TABS,ioos:station:wmo:42043:1,2011-01-06T11:30:00Z,28.9818,-94.9186,1017.1,11111222 
TABS,ioos:station:wmo:42043:1,2011-01-06T12:00:00Z,28.9818,-94.9186,1017.21,11111222 
TABS,ioos:station:wmo:42043:1,2011-01-06T12:30:00Z,28.9818,-94.9186,1017.87,11111222 
TABS,ioos:station:wmo:42043:1,2011-01-06T13:00:00Z,28.9818,-94.9186,1018.31,11111222 
TABS,ioos:station:wmo:42043:1,2011-01-06T13:30:00Z,28.9818,-94.9186,1018.85,11111222 
TABS,ioos:station:wmo:42043:1,2011-01-06T14:00:00Z,28.9818,-94.9186,1018.98,11111222 
TABS,ioos:station:wmo:42043:1,2011-01-06T14:30:00Z,28.9818,-94.9186,1019.79,11111222 
TABS,ioos:station:wmo:42043:1,2011-01-06T15:00:00Z,28.9818,-94.9186,1019.62,11111222 
TABS,ioos:station:wmo:42043:1,2011-01-06T15:30:00Z,28.9818,-94.9186,1019.61,11111222 
TABS,ioos:station:wmo:42043:1,2011-01-06T16:00:00Z,28.9818,-94.9186,1019.51,11111222 
TABS,ioos:station:wmo:42043:1,2011-01-06T16:30:00Z,28.9818,-94.9186,1020.0,11111222 
TABS,ioos:station:wmo:42043:1,2011-01-06T17:00:00Z,28.9818,-94.9186,1020.04,11111222 
TABS,ioos:station:wmo:42043:1,2011-01-06T17:30:00Z,28.9818,-94.9186,1019.94,11111222 
TABS,ioos:station:wmo:42043:1,2011-01-06T18:00:00Z,28.9818,-94.9186,1019.23,11111222 
TABS,ioos:station:wmo:42043:1,2011-01-06T18:30:00Z,28.9818,-94.9186,1018.91,11111222 